Time,TemperatureF,DewpointF,PressureIn,WindDirection,WindDirectionDegrees,WindSpeedMPH,WindSpeedGustMPH,Humidity,HourlyPrecipIn,Conditions,Clouds,dailyrainin,SoftwareType,DateUTC
2013-08-19 00:12:00,61.0,59.0,30.14,North,0,0.0,0.0,92,0.00,,,0.00,,2013-08-19 04:12:00,
2013-08-19 00:23:00,61.0,59.0,30.14,North,0,0.0,0.0,94,0.00,,,0.00,,2013-08-19 04:23:00,
2013-08-19 00:42:00,61.0,59.0,30.14,North,0,0.0,0.0,94,0.00,,,0.00,,2013-08-19 04:42:00,
2013-08-19 00:53:00,60.0,59.0,30.14,North,0,0.0,0.0,95,0.00,,,0.00,,2013-08-19 04:53:00,
2013-08-19 01:02:00,60.0,59.0,30.14,North,0,0.0,0.0,95,0.00,,,0.00,,2013-08-19 05:02:00,
2013-08-19 01:11:00,60.0,59.0,30.14,North,0,0.0,0.0,95,0.00,,,0.00,,2013-08-19 05:11:00,
2013-08-19 01:22:00,60.0,59.0,30.14,North,0,0.0,0.0,95,0.00,,,0.00,,2013-08-19 05:22:00,
2013-08-19 01:42:00,60.0,59.0,30.13,North,0,0.0,0.0,96,0.00,,,0.00,,2013-08-19 05:42:00,
2013-08-19 01:52:00,59.0,58.0,30.13,North,0,0.0,0.0,96,0.00,,,0.00,,2013-08-19 05:52:00,
2013-08-19 02:02:00,59.0,58.0,30.13,North,0,0.0,0.0,96,0.00,,,0.00,,2013-08-19 06:02:00,
2013-08-19 02:11:00,59.0,58.0,30.13,North,0,0.0,0.0,96,0.00,,,0.00,,2013-08-19 06:11:00,
2013-08-19 02:21:00,59.0,58.0,30.13,North,0,0.0,0.0,96,0.00,,,0.00,,2013-08-19 06:21:00,
2013-08-19 02:42:00,59.0,58.0,30.13,North,0,0.0,0.0,97,0.00,,,0.00,,2013-08-19 06:42:00,
2013-08-19 02:52:00,58.0,57.0,30.13,North,0,0.0,0.0,97,0.00,,,0.00,,2013-08-19 06:52:00,
2013-08-19 03:01:00,58.0,57.0,30.13,North,0,0.0,0.0,97,0.00,,,0.00,,2013-08-19 07:01:00,
2013-08-19 03:12:00,58.0,57.0,30.13,North,0,0.0,0.0,97,0.00,,,0.00,,2013-08-19 07:12:00,
2013-08-19 03:21:00,58.0,57.0,30.12,North,0,0.0,0.0,97,0.00,,,0.00,,2013-08-19 07:21:00,
2013-08-19 03:42:00,58.0,57.0,30.12,North,0,0.0,0.0,97,0.00,,,0.00,,2013-08-19 07:42:00,
2013-08-19 03:52:00,58.0,57.0,30.12,North,0,0.0,0.0,97,0.00,,,0.00,,2013-08-19 07:52:00,
2013-08-19 04:11:00,58.0,57.0,30.12,North,0,0.0,0.0,97,0.00,,,0.00,,2013-08-19 08:11:00,
2013-08-19 04:22:00,58.0,57.0,30.12,North,0,0.0,0.0,98,0.00,,,0.00,,2013-08-19 08:22:00,
2013-08-19 04:42:00,58.0,57.0,30.11,North,0,0.0,0.0,98,0.00,,,0.00,,2013-08-19 08:42:00,
2013-08-19 04:52:00,58.0,57.0,30.11,North,0,0.0,0.0,98,0.00,,,0.00,,2013-08-19 08:52:00,
2013-08-19 05:11:00,58.0,57.0,30.11,North,0,0.0,0.0,98,0.00,,,0.00,,2013-08-19 09:11:00,
2013-08-19 05:22:00,58.0,57.0,30.11,North,0,0.0,0.0,98,0.00,,,0.00,,2013-08-19 09:22:00,
2013-08-19 05:43:00,57.0,56.0,30.11,North,0,0.0,0.0,98,0.00,,,0.00,,2013-08-19 09:43:00,
2013-08-19 05:53:00,57.0,56.0,30.11,North,0,0.0,0.0,98,0.00,,,0.00,,2013-08-19 09:53:00,
2013-08-19 06:12:00,57.0,56.0,30.12,North,0,0.0,0.0,98,0.00,,,0.00,,2013-08-19 10:12:00,
2013-08-19 06:23:00,57.0,56.0,30.12,North,0,0.0,0.0,98,0.00,,,0.00,,2013-08-19 10:23:00,
2013-08-19 06:43:00,57.0,56.0,30.12,North,0,0.0,0.0,98,0.00,,,0.00,,2013-08-19 10:43:00,
2013-08-19 06:52:00,57.0,56.0,30.12,North,0,0.0,0.0,98,0.00,,,0.00,,2013-08-19 10:52:00,
2013-08-19 07:12:00,56.0,55.0,30.12,North,0,0.0,0.0,98,0.01,,,0.01,,2013-08-19 11:12:00,
2013-08-19 07:22:00,56.0,55.0,30.13,North,0,0.0,0.0,98,0.01,,,0.01,,2013-08-19 11:22:00,
2013-08-19 07:33:00,56.0,55.0,30.13,North,0,0.0,0.0,98,0.01,,,0.01,,2013-08-19 11:33:00,
2013-08-19 07:45:00,56.0,55.0,30.13,North,0,0.0,0.0,98,0.01,,,0.01,,2013-08-19 11:45:00,
2013-08-19 07:52:00,57.0,56.0,30.13,North,0,0.0,0.0,98,0.00,,,0.01,,2013-08-19 11:52:00,
2013-08-19 08:11:00,57.0,56.0,30.13,North,0,0.0,0.0,98,0.00,,,0.01,,2013-08-19 12:11:00,
2013-08-19 08:21:00,59.0,58.0,30.13,North,0,0.0,0.0,98,0.00,,,0.01,,2013-08-19 12:21:00,
2013-08-19 08:42:00,61.0,60.0,30.13,North,0,0.0,0.0,98,0.00,,,0.01,,2013-08-19 12:42:00,
2013-08-19 08:52:00,63.0,60.0,30.13,SE,140,0.0,2.0,91,0.00,,,0.01,,2013-08-19 12:52:00,
2013-08-19 09:13:00,63.0,59.0,30.13,SE,137,0.0,2.0,88,0.00,,,0.01,,2013-08-19 13:13:00,
2013-08-19 09:22:00,66.0,62.0,30.13,SE,130,0.0,1.0,87,0.00,,,0.01,,2013-08-19 13:22:00,
2013-08-19 09:42:00,68.0,63.0,30.13,SE,124,0.0,1.0,83,0.00,,,0.01,,2013-08-19 13:42:00,
2013-08-19 09:52:00,68.0,62.0,30.13,SE,126,0.0,1.0,81,0.00,,,0.01,,2013-08-19 13:52:00,
2013-08-19 10:11:00,69.0,62.0,30.13,West,262,1.0,2.0,79,0.00,,,0.01,,2013-08-19 14:11:00,
2013-08-19 10:22:00,70.0,62.0,30.12,WSW,246,0.0,1.0,77,0.00,,,0.01,,2013-08-19 14:22:00,
2013-08-19 10:32:00,70.0,62.0,30.12,WSW,246,0.0,1.0,77,0.00,,,0.01,,2013-08-19 14:32:00,
2013-08-19 10:42:00,70.0,62.0,30.12,WSW,246,0.0,1.0,77,0.00,,,0.01,,2013-08-19 14:42:00,
2013-08-19 10:52:00,73.0,63.0,30.13,West,274,1.0,5.0,70,0.00,,,0.01,,2013-08-19 14:52:00,
2013-08-19 11:11:00,74.0,63.0,30.12,West,265,1.0,4.0,68,0.00,,,0.01,,2013-08-19 15:11:00,
2013-08-19 11:23:00,74.0,63.0,30.12,WNW,300,2.0,4.0,68,0.00,,,0.01,,2013-08-19 15:23:00,
2013-08-19 11:44:00,75.0,63.0,30.12,SSW,208,1.0,4.0,67,0.00,,,0.01,,2013-08-19 15:44:00,
2013-08-19 11:54:00,76.0,60.0,30.11,SSW,193,2.0,7.0,57,0.00,,,0.01,,2013-08-19 15:54:00,
2013-08-19 12:13:00,77.0,61.0,30.11,South,189,2.0,7.0,58,0.00,,,0.01,,2013-08-19 16:13:00,
2013-08-19 12:23:00,76.0,60.0,30.11,West,262,4.0,9.0,57,0.00,,,0.01,,2013-08-19 16:23:00,
2013-08-19 12:47:00,76.0,59.0,30.11,West,271,4.0,9.0,56,0.00,,,0.01,,2013-08-19 16:47:00,
2013-08-19 13:13:00,77.0,56.0,30.11,West,275,3.0,7.0,48,0.00,,,0.01,,2013-08-19 17:13:00,
2013-08-19 13:30:00,77.0,-99.9,30.11,NW,304,4.0,9.0,47,0.00,,,0.01,,2013-08-19 17:30:00,
2013-08-19 13:49:00,77.0,56.0,30.11,WNW,298,5.0,11.0,48,0.00,,,0.01,,2013-08-19 17:49:00,
2013-08-19 13:57:00,77.0,56.0,30.11,WNW,287,3.0,8.0,48,0.00,,,0.01,,2013-08-19 17:57:00,
2013-08-19 14:19:00,77.0,54.0,30.11,WNW,284,4.0,10.0,45,0.00,,,0.01,,2013-08-19 18:19:00,
2013-08-19 14:28:00,78.0,56.0,30.10,West,265,3.0,10.0,47,0.00,,,0.01,,2013-08-19 18:28:00,
2013-08-19 14:50:00,-999.0,-99.9,30.10,West,270,3.0,7.0,45,0.00,,,0.01,,2013-08-19 18:50:00,
2013-08-19 15:00:00,-999.0,-99.9,30.10,WNW,296,3.0,8.0,46,0.00,,,0.01,,2013-08-19 19:00:00,
2013-08-19 15:16:00,78.0,55.0,30.09,West,280,3.0,8.0,45,0.00,,,0.01,,2013-08-19 19:16:00,
2013-08-19 15:30:00,-999.0,-99.9,30.09,WNW,289,3.0,7.0,41,0.00,,,0.01,,2013-08-19 19:30:00,
2013-08-19 15:50:00,79.0,55.0,30.09,WNW,289,3.0,8.0,44,0.00,,,0.01,,2013-08-19 19:50:00,
2013-08-19 15:59:00,79.0,55.0,30.09,West,270,3.0,7.0,43,0.00,,,0.01,,2013-08-19 19:59:00,
2013-08-19 16:20:00,79.0,57.0,30.09,WSW,254,2.0,7.0,47,0.00,,,0.01,,2013-08-19 20:20:00,
2013-08-19 16:30:00,79.0,-99.9,30.08,WSW,251,3.0,8.0,48,0.00,,,0.01,,2013-08-19 20:30:00,
2013-08-19 16:50:00,79.0,57.0,30.08,WNW,297,3.0,8.0,47,0.00,,,0.01,,2013-08-19 20:50:00,
2013-08-19 17:00:00,-999.0,-99.9,30.07,West,270,3.0,7.0,-999,-99.99,,,-99.99,,2013-08-19 21:00:00,
2013-08-19 17:08:00,79.0,59.0,30.07,West,270,3.0,7.0,51,0.00,,,0.01,,2013-08-19 21:08:00,
2013-08-19 17:16:00,79.0,59.0,30.07,West,270,3.0,7.0,51,0.00,,,0.01,,2013-08-19 21:16:00,
2013-08-19 17:25:00,80.0,60.0,30.07,NW,326,2.0,6.0,51,0.00,,,0.01,,2013-08-19 21:25:00,
2013-08-19 17:38:00,80.0,60.0,30.07,NW,326,2.0,6.0,51,0.00,,,0.01,,2013-08-19 21:38:00,
2013-08-19 17:46:00,80.0,60.0,30.07,NW,326,2.0,6.0,51,0.00,,,0.01,,2013-08-19 21:46:00,
2013-08-19 17:55:00,80.0,60.0,30.06,West,267,3.0,8.0,50,0.00,,,0.01,,2013-08-19 21:55:00,
2013-08-19 18:25:00,80.0,60.0,30.06,SW,215,1.0,8.0,50,0.00,,,0.01,,2013-08-19 22:25:00,
2013-08-19 18:44:00,80.0,60.0,30.06,WSW,248,1.0,5.0,50,0.00,,,0.01,,2013-08-19 22:44:00,
2013-08-19 18:55:00,81.0,61.0,30.06,SSW,213,1.0,3.0,51,0.00,,,0.01,,2013-08-19 22:55:00,
2013-08-19 19:15:00,80.0,60.0,30.06,WSW,257,2.0,6.0,51,0.00,,,0.01,,2013-08-19 23:15:00,
2013-08-19 19:25:00,80.0,60.0,30.06,WSW,238,2.0,4.0,50,0.00,,,0.01,,2013-08-19 23:25:00,
2013-08-19 19:48:00,80.0,60.0,30.06,WSW,247,1.0,5.0,50,0.00,,,0.01,,2013-08-19 23:48:00,
2013-08-19 19:55:00,80.0,62.0,30.06,WSW,254,1.0,3.0,55,0.00,,,0.01,,2013-08-19 23:55:00,
2013-08-19 20:11:00,80.0,62.0,30.06,SW,226,0.0,1.0,54,0.00,,,0.01,,2013-08-20 00:11:00,
2013-08-19 20:24:00,80.0,62.0,30.06,SW,226,0.0,1.0,54,0.00,,,0.01,,2013-08-20 00:24:00,
2013-08-19 20:42:00,73.0,63.0,30.05,North,0,0.0,0.0,70,0.00,,,0.01,,2013-08-20 00:42:00,
2013-08-19 21:42:00,67.0,62.0,30.06,North,0,0.0,0.0,83,0.00,,,0.01,,2013-08-20 01:42:00,
2013-08-19 21:52:00,67.0,62.0,30.06,North,0,0.0,0.0,83,0.00,,,0.01,,2013-08-20 01:52:00,
2013-08-19 22:02:00,67.0,62.0,30.06,North,0,0.0,0.0,83,0.00,,,0.01,,2013-08-20 02:02:00,
2013-08-19 22:42:00,65.0,62.0,30.08,North,0,0.0,0.0,89,0.00,,,0.01,,2013-08-20 02:42:00,
2013-08-19 22:52:00,64.0,61.0,30.07,North,0,0.0,0.0,89,0.00,,,0.01,,2013-08-20 02:52:00,
2013-08-19 23:11:00,64.0,61.0,30.08,North,0,0.0,0.0,90,0.00,,,0.01,,2013-08-20 03:11:00,
2013-08-19 23:22:00,64.0,61.0,30.08,North,0,0.0,0.0,91,0.00,,,0.01,,2013-08-20 03:22:00,
2013-08-19 23:43:00,63.0,61.0,30.08,North,0,0.0,0.0,92,0.00,,,0.01,,2013-08-20 03:43:00,
2013-08-19 23:54:00,63.0,61.0,30.08,North,0,0.0,0.0,93,0.00,,,0.01,,2013-08-20 03:54:00,